New Bern, NC

12:06 PM EDT on May 27, 2018 (GMT -0400)
Craven County Regional

Weather History for KEWN - February, 2013

Change the Weather History Date:

Sunday, February 17, 2013

  Actual Average Record
Temperature  
Mean Temperature 33 °F 47 °F  
Max Temperature 39 °F 58 °F 82 °F (1976)
Min Temperature 27 °F 36 °F 14 °F (1958)
Degree Days  
Heating Degree Days 32 18  
Month to date heating degree days 284 322  
Since 1 July heating degree days 1728 1962  
Cooling Degree Days 0 0  
Month to date cooling degree days 0 0  
Year to date cooling degree days 7 1  
Moisture  
Dew Point 23 °F    
Average Humidity 60    
Maximum Humidity 89    
Minimum Humidity 30    
Precipitation  
Precipitation T in 0.14 in 1.34 in (1983)
Month to date precipitation 2.81 2.14  
Year to date precipitation 4.64 6.16  
Snow  
Snow T in - - ()
Month to date snowfall T  
Since 1 July snowfall T  
Snow Depth 0.00 in    
Sea Level Pressure  
Sea Level Pressure 30.03 in    
Wind  
Wind Speed 10 mph (WNW)    
Max Wind Speed 26 mph    
Max Gust Speed 37 mph    
Visibility 8 miles    
Events Snow    
T = Trace of Precipitation, MM = Missing Value Source: NWS Daily Summary

Daily Weather History Graph

Daily Weather History Graph

Search for Another Location

Airport or City:

Astronomy

Feb. 17, 2013 Rise Set
Actual Time 6:51 AM EST 5:52 PM EST
Civil Twilight 6:25 AM EST 6:18 PM EST
Nautical Twilight 5:56 AM EST 6:48 PM EST
Astronomical Twilight 5:26 AM EST 7:17 PM EST
Moon 11:01 AM EST (2/17) 12:29 AM EST (2/17)
Length of Visible Light 11h 52m
Length of Day
11h 01m
Waxing Crescent, 49% of the Moon is Illuminated
Feb 17
Waxing Crescent
Feb 17
First Quarter
Feb 25
Full
Mar 4
Last Quarter
Mar 11
New

Hourly Weather History & Observations

Time (EST) Temp. Windchill Dew Point Humidity Pressure Visibility Wind Dir Wind Speed Gust Speed Precip Events Conditions
12:15 AM 35.6 °F 29.9 °F 32.0 °F 87% 29.86 in 5.0 mi WNW 6.9 mph - 0.00 in Snow Light Snow
12:31 AM 35.6 °F 30.7 °F 32.0 °F 87% 29.87 in 2.5 mi WNW 5.8 mph - 0.00 in Snow Light Snow
12:40 AM 35.6 °F 28.0 °F 32.0 °F 87% 29.87 in 4.0 mi WNW 10.4 mph - 0.00 in Snow Light Snow
12:54 AM 35.1 °F 27.9 °F 32.0 °F 89% 29.88 in 6.0 mi NW 9.2 mph - 0.00 in Snow Light Snow
1:23 AM 35.6 °F 27.1 °F 30.2 °F 81% 29.89 in 5.0 mi North 12.7 mph 23.0 mph 0.00 in Snow Light Snow
1:54 AM 35.1 °F 27.4 °F 30.9 °F 85% 29.89 in 5.0 mi NNW 10.4 mph - 0.00 in Snow Light Snow
2:20 AM 35.6 °F 28.6 °F 30.2 °F 81% 29.90 in 1.8 mi NW 9.2 mph - 0.00 in Snow Light Snow
2:29 AM 35.6 °F 27.5 °F 30.2 °F 81% 29.90 in 2.0 mi NW 11.5 mph - 0.00 in Snow Light Snow
2:32 AM 35.6 °F 28.0 °F 30.2 °F 81% 29.90 in 3.0 mi WNW 10.4 mph 18.4 mph 0.00 in Snow Light Snow
2:54 AM 35.1 °F 27.9 °F 30.9 °F 85% 29.91 in 10.0 mi WNW 9.2 mph - 0.00 in   Overcast
3:06 AM 35.6 °F 29.2 °F 30.2 °F 81% 29.91 in 10.0 mi WNW 8.1 mph - N/A   Mostly Cloudy
3:54 AM 35.1 °F 27.4 °F 30.0 °F 82% 29.93 in 10.0 mi NW 10.4 mph 17.3 mph N/A   Mostly Cloudy
4:52 AM 33.8 °F 24.8 °F 28.4 °F 81% 29.95 in 10.0 mi WNW 12.7 mph - N/A   Scattered Clouds
4:54 AM 34.0 °F 25.0 °F 28.0 °F 79% 29.96 in 10.0 mi WNW 12.7 mph - N/A   Scattered Clouds
5:54 AM 33.1 °F 25.5 °F 25.0 °F 72% 29.98 in 10.0 mi WNW 9.2 mph - N/A   Partly Cloudy
6:54 AM 32.0 °F 24.2 °F 25.0 °F 75% 30.01 in 10.0 mi West 9.2 mph 17.3 mph N/A   Clear
7:54 AM 32.0 °F 22.5 °F 24.1 °F 73% 30.04 in 10.0 mi WNW 12.7 mph 19.6 mph N/A   Clear
9:54 AM 35.1 °F 24.5 °F 19.0 °F 52% 30.07 in 10.0 mi WNW 18.4 mph 28.8 mph N/A   Clear
10:54 AM 36.0 °F 26.0 °F 17.1 °F 46% 30.09 in 10.0 mi NW 17.3 mph 27.6 mph N/A   Partly Cloudy
11:54 AM 37.0 °F 26.7 °F 16.0 °F 42% 30.09 in 10.0 mi NW 19.6 mph 29.9 mph N/A   Overcast
12:54 PM 37.0 °F 28.1 °F 16.0 °F 42% 30.09 in 10.0 mi WNW 15.0 mph 28.8 mph N/A   Mostly Cloudy
1:54 PM 37.0 °F 28.1 °F 12.0 °F 36% 30.09 in 10.0 mi NW 15.0 mph 31.1 mph N/A   Partly Cloudy
2:54 PM 39.0 °F 30.3 °F 10.9 °F 32% 30.09 in 10.0 mi NW 16.1 mph 27.6 mph N/A   Clear
3:54 PM 39.0 °F 30.6 °F 10.9 °F 32% 30.11 in 10.0 mi NW 15.0 mph 25.3 mph N/A   Clear
4:54 PM 39.0 °F 31.0 °F 10.0 °F 30% 30.13 in 10.0 mi WNW 13.8 mph 20.7 mph N/A   Clear
5:54 PM 36.0 °F 29.0 °F 10.9 °F 36% 30.16 in 10.0 mi NW 9.2 mph - N/A   Clear
6:54 PM 34.0 °F 29.8 °F 12.9 °F 42% 30.18 in 10.0 mi WNW 4.6 mph - N/A   Clear
7:54 PM 34.0 °F - 12.9 °F 42% 30.21 in 10.0 mi Calm Calm - N/A   Clear
8:54 PM 30.0 °F - 19.9 °F 66% 30.24 in 10.0 mi Calm Calm - N/A   Clear
9:54 PM 27.0 °F 23.0 °F 19.0 °F 72% 30.27 in 10.0 mi SSW 3.5 mph - N/A   Clear
10:54 PM 30.0 °F - 18.0 °F 61% 30.28 in 10.0 mi Calm Calm - N/A   Clear
11:54 PM 28.9 °F 25.2 °F 16.0 °F 58% 30.30 in 10.0 mi WSW 3.5 mph - N/A   Clear